User: anonymous   Login
Location: Unspecified
(0.0000°N, 0.0000°E)
Time: 15:00:40
(UTC+00:00)
Language:

OBJECT T - Orbit

View from above orbital plane
View from above orbital plane
View from above satellite
View from above satellite

Ground track
Ground track

The orbit data is extracted from the following two-line orbital elements,

1 43775U 18099T   25340.10657681  .00006067  00000-0  39265-3 0  9998
2 43775  97.4495  25.2435 0004228 271.0266  89.0478 15.08513519383195
Epoch (UTC): 06 December 2025 02:33:28
Eccentricity: 0.0004228
inclination: 97.4495°
perigee height: 538 km
apogee height: 543 km
right ascension of ascending node: 25.2435°
argument of perigee: 271.0266°
revolutions per day: 15.08513519
mean anomaly at epoch: 89.0478°
orbit number at epoch: 38319

The dashed part of the orbit path shows where the satellite is in the earth's shadow,  

DLR